Time,TemperatureF,DewpointF,PressureIn,WindDirection,WindDirectionDegrees,WindSpeedMPH,WindSpeedGustMPH,Humidity,HourlyPrecipIn,Conditions,Clouds,dailyrainin,SoftwareType,DateUTC
2013-01-04 00:14:00,17.0,14.0,30.07,WSW,240,2.0,-999.0,87,-99.99,,,0.00,weatherlink.com 1.10,2013-01-04 06:14:00,
2013-01-04 00:29:00,17.0,14.0,30.06,WSW,243,4.0,-999.0,87,-99.99,,,0.00,weatherlink.com 1.10,2013-01-04 06:29:00,
2013-01-04 00:45:00,17.2,14.0,30.05,West,279,5.0,-999.0,86,-99.99,,,0.00,weatherlink.com 1.10,2013-01-04 06:45:00,
2013-01-04 01:00:00,17.5,14.0,30.04,WSW,249,4.0,-999.0,86,-99.99,,,0.00,weatherlink.com 1.10,2013-01-04 07:00:00,
2013-01-04 01:15:00,17.6,14.0,30.05,WSW,238,2.0,-999.0,86,-99.99,,,0.00,weatherlink.com 1.10,2013-01-04 07:15:00,
2013-01-04 01:30:00,17.5,14.0,30.05,WSW,240,5.0,-999.0,86,-99.99,,,0.00,weatherlink.com 1.10,2013-01-04 07:30:00,
2013-01-04 01:45:00,17.6,14.0,30.04,West,262,5.0,-999.0,86,-99.99,,,0.00,weatherlink.com 1.10,2013-01-04 07:45:00,
2013-01-04 02:00:00,17.4,14.0,30.04,WSW,250,1.0,-999.0,85,-99.99,,,0.00,weatherlink.com 1.10,2013-01-04 08:00:00,
2013-01-04 02:15:00,17.1,14.0,30.03,WSW,242,2.0,-999.0,86,-99.99,,,0.00,weatherlink.com 1.10,2013-01-04 08:15:00,
2013-01-04 02:30:00,17.8,14.0,30.03,West,271,3.0,-999.0,86,-99.99,,,0.00,weatherlink.com 1.10,2013-01-04 08:30:00,
2013-01-04 02:45:00,18.6,15.0,30.03,WSW,244,2.0,-999.0,86,-99.99,,,0.00,weatherlink.com 1.10,2013-01-04 08:45:00,
2013-01-04 03:00:00,18.8,15.0,30.02,WSW,257,1.0,-999.0,85,-99.99,,,0.00,weatherlink.com 1.10,2013-01-04 09:00:00,
2013-01-04 03:15:00,19.0,15.0,30.02,WSW,238,2.0,-999.0,85,-99.99,,,0.00,weatherlink.com 1.10,2013-01-04 09:15:00,
2013-01-04 03:30:00,19.2,15.0,30.02,WSW,240,2.0,-999.0,84,-99.99,,,0.00,weatherlink.com 1.10,2013-01-04 09:30:00,
2013-01-04 03:45:00,19.0,15.0,30.02,WSW,250,1.0,-999.0,84,-99.99,,,0.00,weatherlink.com 1.10,2013-01-04 09:45:00,
2013-01-04 04:00:00,18.8,15.0,30.01,WSW,250,1.0,-999.0,84,-99.99,,,0.00,weatherlink.com 1.10,2013-01-04 10:00:00,
2013-01-04 04:15:00,18.5,15.0,30.02,SW,236,0.0,-999.0,84,-99.99,,,0.00,weatherlink.com 1.10,2013-01-04 10:15:00,
2013-01-04 04:30:00,18.0,14.0,30.02,SW,236,0.0,-999.0,84,-99.99,,,0.00,weatherlink.com 1.10,2013-01-04 10:30:00,
2013-01-04 04:45:00,17.5,14.0,30.02,SW,236,0.0,-999.0,84,-99.99,,,0.00,weatherlink.com 1.10,2013-01-04 10:45:00,
2013-01-04 05:00:00,16.9,13.0,30.03,SW,236,0.0,-999.0,85,-99.99,,,0.00,weatherlink.com 1.10,2013-01-04 11:00:00,
2013-01-04 05:15:00,17.2,14.0,30.03,SW,236,1.0,-999.0,86,-99.99,,,0.00,weatherlink.com 1.10,2013-01-04 11:15:00,
2013-01-04 05:30:00,16.7,13.0,30.04,SW,236,0.0,-999.0,86,-99.99,,,0.00,weatherlink.com 1.10,2013-01-04 11:30:00,
2013-01-04 05:45:00,17.1,14.0,30.04,SW,236,0.0,-999.0,86,-99.99,,,0.00,weatherlink.com 1.10,2013-01-04 11:45:00,
2013-01-04 06:00:00,16.3,13.0,30.03,SW,236,0.0,-999.0,85,-99.99,,,0.00,weatherlink.com 1.10,2013-01-04 12:00:00,
2013-01-04 06:15:00,15.2,12.0,30.04,SW,236,1.0,-999.0,86,-99.99,,,0.00,weatherlink.com 1.10,2013-01-04 12:15:00,
2013-01-04 06:30:00,16.6,13.0,30.04,SW,236,3.0,-999.0,87,-99.99,,,0.00,weatherlink.com 1.10,2013-01-04 12:30:00,
2013-01-04 06:45:00,17.2,14.0,30.03,SW,236,0.0,-999.0,87,-99.99,,,0.00,weatherlink.com 1.10,2013-01-04 12:45:00,
2013-01-04 07:00:00,17.1,14.0,30.04,SW,236,0.0,-999.0,86,-99.99,,,0.00,weatherlink.com 1.10,2013-01-04 13:00:00,
2013-01-04 07:15:00,17.1,14.0,30.04,SW,236,0.0,-999.0,86,-99.99,,,0.00,weatherlink.com 1.10,2013-01-04 13:15:00,
2013-01-04 07:30:00,16.5,13.0,30.04,SW,236,0.0,-999.0,86,-99.99,,,0.00,weatherlink.com 1.10,2013-01-04 13:30:00,
2013-01-04 07:45:00,17.0,14.0,30.05,SW,236,0.0,-999.0,86,-99.99,,,0.00,weatherlink.com 1.10,2013-01-04 13:45:00,
2013-01-04 08:00:00,17.0,14.0,30.05,SW,236,0.0,-999.0,86,-99.99,,,0.00,weatherlink.com 1.10,2013-01-04 14:00:00,
2013-01-04 08:15:00,16.7,13.0,30.05,SW,236,0.0,-999.0,85,-99.99,,,0.00,weatherlink.com 1.10,2013-01-04 14:15:00,
2013-01-04 08:30:00,16.1,12.0,30.06,SW,236,0.0,-999.0,85,-99.99,,,0.00,weatherlink.com 1.10,2013-01-04 14:30:00,
2013-01-04 08:45:00,16.3,13.0,30.06,SW,236,0.0,-999.0,86,-99.99,,,0.00,weatherlink.com 1.10,2013-01-04 14:45:00,
2013-01-04 09:00:00,17.8,15.0,30.07,SW,236,1.0,-999.0,87,-99.99,,,0.00,weatherlink.com 1.10,2013-01-04 15:00:00,
2013-01-04 09:15:00,19.7,16.0,30.07,SW,236,2.0,-999.0,85,-99.99,,,0.00,weatherlink.com 1.10,2013-01-04 15:15:00,
2013-01-04 09:30:00,21.0,16.0,30.08,WSW,243,3.0,-999.0,80,-99.99,,,0.00,weatherlink.com 1.10,2013-01-04 15:30:00,
2013-01-04 09:45:00,22.1,16.0,30.09,WSW,242,0.0,-999.0,77,-99.99,,,0.00,weatherlink.com 1.10,2013-01-04 15:45:00,
2013-01-04 10:00:00,22.9,16.0,30.09,WSW,242,1.0,-999.0,75,-99.99,,,0.00,weatherlink.com 1.10,2013-01-04 16:00:00,
2013-01-04 10:15:00,23.5,16.0,30.09,WSW,242,0.0,-999.0,74,-99.99,,,0.00,weatherlink.com 1.10,2013-01-04 16:15:00,
2013-01-04 10:30:00,24.2,17.0,30.09,WSW,242,0.0,-999.0,73,-99.99,,,0.00,weatherlink.com 1.10,2013-01-04 16:30:00,
2013-01-04 10:45:00,24.9,17.0,30.09,WSW,242,1.0,-999.0,72,-99.99,,,0.00,weatherlink.com 1.10,2013-01-04 16:45:00,
2013-01-04 11:00:00,25.6,17.0,30.09,WSW,241,0.0,-999.0,71,-99.99,,,0.00,weatherlink.com 1.10,2013-01-04 17:00:00,
2013-01-04 11:15:00,26.0,18.0,30.09,SW,234,2.0,-999.0,71,-99.99,,,0.00,weatherlink.com 1.10,2013-01-04 17:15:00,
2013-01-04 11:30:00,26.1,18.0,30.09,WSW,237,1.0,-999.0,71,-99.99,,,0.00,weatherlink.com 1.10,2013-01-04 17:30:00,
2013-01-04 11:45:00,26.4,18.0,30.09,SW,233,5.0,-999.0,71,-99.99,,,0.00,weatherlink.com 1.10,2013-01-04 17:45:00,
2013-01-04 12:01:00,26.9,18.0,30.09,SW,231,4.0,-999.0,70,-99.99,,,0.00,weatherlink.com 1.10,2013-01-04 18:01:00,
2013-01-04 12:16:00,27.1,19.0,30.09,West,267,4.0,-999.0,71,-99.99,,,0.00,weatherlink.com 1.10,2013-01-04 18:16:00,
2013-01-04 12:31:00,27.6,19.0,30.08,WSW,238,2.0,-999.0,70,-99.99,,,0.00,weatherlink.com 1.10,2013-01-04 18:31:00,
2013-01-04 12:46:00,28.0,19.0,30.08,WSW,238,2.0,-999.0,69,-99.99,,,0.00,weatherlink.com 1.10,2013-01-04 18:46:00,
2013-01-04 13:01:00,28.2,19.0,30.08,West,265,3.0,-999.0,68,-99.99,,,0.00,weatherlink.com 1.10,2013-01-04 19:01:00,
2013-01-04 13:16:00,28.1,19.0,30.08,WSW,244,2.0,-999.0,69,-99.99,,,0.00,weatherlink.com 1.10,2013-01-04 19:16:00,
2013-01-04 13:31:00,28.3,19.0,30.08,West,261,2.0,-999.0,68,-99.99,,,0.00,weatherlink.com 1.10,2013-01-04 19:31:00,
2013-01-04 13:46:00,28.8,19.0,30.08,WSW,237,4.0,-999.0,67,-99.99,,,0.00,weatherlink.com 1.10,2013-01-04 19:46:00,
2013-01-04 14:01:00,29.0,19.0,30.07,WSW,248,0.0,-999.0,67,-99.99,,,0.00,weatherlink.com 1.10,2013-01-04 20:01:00,
2013-01-04 14:16:00,29.6,19.0,30.08,WSW,247,1.0,-999.0,66,-99.99,,,0.00,weatherlink.com 1.10,2013-01-04 20:16:00,
2013-01-04 14:31:00,29.5,19.0,30.08,WSW,247,2.0,-999.0,65,-99.99,,,0.00,weatherlink.com 1.10,2013-01-04 20:31:00,
2013-01-04 14:46:00,29.7,20.0,30.09,WSW,250,2.0,-999.0,66,-99.99,,,0.00,weatherlink.com 1.10,2013-01-04 20:46:00,
2013-01-04 15:01:00,30.0,19.0,30.09,WSW,246,2.0,-999.0,64,-99.99,,,0.01,weatherlink.com 1.10,2013-01-04 21:01:00,
2013-01-04 15:16:00,29.9,19.0,30.09,WSW,243,2.0,-999.0,65,-99.99,,,0.01,weatherlink.com 1.10,2013-01-04 21:16:00,
2013-01-04 15:31:00,29.7,20.0,30.09,WSW,257,2.0,-999.0,66,-99.99,,,0.01,weatherlink.com 1.10,2013-01-04 21:31:00,
2013-01-04 15:46:00,29.3,20.0,30.10,WSW,257,2.0,-999.0,67,-99.99,,,0.01,weatherlink.com 1.10,2013-01-04 21:46:00,
2013-01-04 16:01:00,29.0,19.0,30.11,WSW,257,1.0,-999.0,67,-99.99,,,0.01,weatherlink.com 1.10,2013-01-04 22:01:00,
2013-01-04 16:16:00,28.7,19.0,30.11,WSW,238,0.0,-999.0,67,-99.99,,,0.01,weatherlink.com 1.10,2013-01-04 22:16:00,
2013-01-04 16:31:00,27.9,19.0,30.11,WSW,238,0.0,-999.0,69,-99.99,,,0.01,weatherlink.com 1.10,2013-01-04 22:31:00,
2013-01-04 16:46:00,27.1,19.0,30.12,WSW,238,1.0,-999.0,70,-99.99,,,0.01,weatherlink.com 1.10,2013-01-04 22:46:00,
2013-01-04 17:01:00,26.4,18.0,30.12,WSW,238,0.0,-999.0,71,-99.99,,,0.01,weatherlink.com 1.10,2013-01-04 23:01:00,
2013-01-04 17:16:00,25.1,17.0,30.13,WSW,238,0.0,-999.0,72,-99.99,,,0.01,weatherlink.com 1.10,2013-01-04 23:16:00,
2013-01-04 17:31:00,23.8,17.0,30.13,WSW,238,0.0,-999.0,74,-99.99,,,0.01,weatherlink.com 1.10,2013-01-04 23:31:00,
2013-01-04 17:46:00,23.7,17.0,30.14,WSW,238,0.0,-999.0,76,-99.99,,,0.01,weatherlink.com 1.10,2013-01-04 23:46:00,
2013-01-04 18:01:00,23.3,17.0,30.13,WSW,238,0.0,-999.0,76,-99.99,,,0.01,weatherlink.com 1.10,2013-01-05 00:01:00,
2013-01-04 18:16:00,22.6,16.0,30.13,WSW,238,0.0,-999.0,76,-99.99,,,0.01,weatherlink.com 1.10,2013-01-05 00:16:00,
2013-01-04 18:31:00,21.5,15.0,30.13,WSW,238,0.0,-999.0,76,-99.99,,,0.01,weatherlink.com 1.10,2013-01-05 00:31:00,
2013-01-04 18:46:00,20.4,14.0,30.14,WSW,238,0.0,-999.0,77,-99.99,,,0.01,weatherlink.com 1.10,2013-01-05 00:46:00,
2013-01-04 19:01:00,19.3,14.0,30.14,WSW,238,0.0,-999.0,78,-99.99,,,0.01,weatherlink.com 1.10,2013-01-05 01:01:00,
2013-01-04 19:16:00,18.1,13.0,30.13,WSW,238,0.0,-999.0,79,-99.99,,,0.01,weatherlink.com 1.10,2013-01-05 01:16:00,
2013-01-04 19:31:00,17.2,12.0,30.13,WSW,238,0.0,-999.0,81,-99.99,,,0.01,weatherlink.com 1.10,2013-01-05 01:31:00,
2013-01-04 19:46:00,16.4,12.0,30.13,WSW,238,0.0,-999.0,81,-99.99,,,0.01,weatherlink.com 1.10,2013-01-05 01:46:00,
2013-01-04 20:01:00,15.7,11.0,30.13,WSW,238,0.0,-999.0,82,-99.99,,,0.01,weatherlink.com 1.10,2013-01-05 02:01:00,
2013-01-04 20:16:00,15.2,11.0,30.13,WSW,238,0.0,-999.0,83,-99.99,,,0.01,weatherlink.com 1.10,2013-01-05 02:16:00,
2013-01-04 20:31:00,14.9,11.0,30.13,WSW,238,0.0,-999.0,84,-99.99,,,0.01,weatherlink.com 1.10,2013-01-05 02:31:00,
2013-01-04 20:46:00,14.3,10.0,30.13,WSW,238,0.0,-999.0,84,-99.99,,,0.01,weatherlink.com 1.10,2013-01-05 02:46:00,
2013-01-04 21:01:00,13.8,10.0,30.12,WSW,238,0.0,-999.0,85,-99.99,,,0.01,weatherlink.com 1.10,2013-01-05 03:01:00,
2013-01-04 21:16:00,13.3,10.0,30.12,WSW,238,0.0,-999.0,85,-99.99,,,0.01,weatherlink.com 1.10,2013-01-05 03:16:00,
2013-01-04 21:31:00,13.1,10.0,30.13,WSW,238,0.0,-999.0,86,-99.99,,,0.01,weatherlink.com 1.10,2013-01-05 03:31:00,
2013-01-04 21:46:00,13.5,10.0,30.13,WSW,238,0.0,-999.0,87,-99.99,,,0.01,weatherlink.com 1.10,2013-01-05 03:46:00,
2013-01-04 22:01:00,13.2,10.0,30.13,WSW,238,0.0,-999.0,87,-99.99,,,0.01,weatherlink.com 1.10,2013-01-05 04:01:00,
2013-01-04 22:16:00,13.0,10.0,30.13,WSW,238,0.0,-999.0,87,-99.99,,,0.01,weatherlink.com 1.10,2013-01-05 04:16:00,
2013-01-04 22:31:00,12.8,10.0,30.12,WSW,238,0.0,-999.0,87,-99.99,,,0.01,weatherlink.com 1.10,2013-01-05 04:31:00,
2013-01-04 22:46:00,12.1,9.0,30.12,WSW,238,0.0,-999.0,88,-99.99,,,0.01,weatherlink.com 1.10,2013-01-05 04:46:00,
2013-01-04 23:02:00,11.2,8.0,30.12,WSW,238,0.0,-999.0,87,-99.99,,,0.01,weatherlink.com 1.10,2013-01-05 05:02:00,
2013-01-04 23:16:00,10.7,8.0,30.11,WSW,238,0.0,-999.0,88,-99.99,,,0.01,weatherlink.com 1.10,2013-01-05 05:16:00,
2013-01-04 23:31:00,10.6,8.0,30.11,WSW,238,0.0,-999.0,88,-99.99,,,0.01,weatherlink.com 1.10,2013-01-05 05:31:00,
2013-01-04 23:46:00,10.4,8.0,30.11,WSW,238,0.0,-999.0,88,-99.99,,,0.01,weatherlink.com 1.10,2013-01-05 05:46:00,